Weather History for Victoria University, BC

Change the Weather History Date:

Friday, December 14, 2012

  Actual Average Record
Temperature  
Mean Temperature 38 °F -  
Max Temperature 44 °F - - ()
Min Temperature 32 °F - - ()
Degree Days  
Heating Degree Days 27    
Moisture  
Dew Point 34 °F    
Average Humidity 85    
Maximum Humidity 97    
Minimum Humidity 62    
Precipitation  
Precipitation 0.12 in - - ()
Sea Level Pressure  
Sea Level Pressure 29.86 in    
Wind  
Wind Speed 2 mph ()    
Max Wind Speed 6 mph    
Max Gust Speed -    
T = Trace of Precipitation, MM = Missing Value Source: Averaged Metar Reports

Daily Weather History Graph

Daily Weather History Graph

Search for Another Location

Airport:

Trip Planner

Search our weather history database for the weather conditions in past years. The results will help you decide how hot, cold, wet, or windy it might be!

Date:

Astronomy

Dec. 14, 2012 Rise Set
Actual Time 7:58 AM PST 4:18 PM PST
Civil Twilight 7:21 AM PST 4:55 PM PST
Nautical Twilight 6:41 AM PST 5:35 PM PST
Astronomical Twilight 6:03 AM PST 6:13 PM PST
Moon 9:02 AM PST (12/14) 6:23 PM PST (12/14)
Length of Visible Light 9h 33m
Length of Day
8h 20m
Waxing Crescent, 3% of the Moon is Illuminated
Dec 14
Waxing Crescent
Dec 19
First Quarter
Dec 28
Full
Jan 4
Last Quarter
Jan 11
New

Hourly Weather History & Observations

Time (PST) Temp. Windchill Dew Point Humidity Pressure Visibility Wind Dir Wind Speed Gust Speed Precip Events Conditions
12:00 AM 41.2 °F - 39.6 °F 94% 29.76 in - Calm Calm - 0.03 in   Unknown
1:00 AM 40.8 °F 38.8 °F 39.6 °F 95% 29.76 in - NW 3.5 mph - 0.05 in   Unknown
2:00 AM 40.1 °F 38.0 °F 38.7 °F 95% 29.77 in - NW 3.5 mph - 0.01 in   Unknown
3:00 AM 39.2 °F 35.9 °F 37.8 °F 95% 29.78 in - West 4.6 mph - N/A   Unknown
4:00 AM 38 °F - 37 °F 93% 29.79 in - NW 4.6 mph - -  
4:00 AM 38.5 °F 35.0 °F 36.7 °F 93% 29.79 in - NW 4.6 mph - N/A   Unknown
5:00 AM 37.6 °F 34.0 °F 36.0 °F 94% 29.79 in - WNW 4.6 mph - N/A   Unknown
7:00 AM 36.1 °F - 34.7 °F 94% 29.82 in - West 2.3 mph - 0.02 in   Unknown
8:00 AM 34.9 °F 32.0 °F 33.6 °F 95% 29.83 in - West 3.5 mph - N/A   Unknown
9:00 AM 34.5 °F 31.6 °F 33.6 °F 97% 29.85 in - West 3.5 mph - N/A   Unknown
10:00 AM 40 °F - 37 °F 85% 29.87 in - NNW 1.2 mph - -  
10:00 AM 39.9 °F - 37.0 °F 89% 29.87 in - NNW 1.2 mph - N/A   Unknown
11:00 AM 41.7 °F 38.0 °F 31.6 °F 67% 29.87 in - North 5.8 mph - N/A   Unknown
12:00 PM 43.7 °F 41.1 °F 32.9 °F 66% 29.88 in - NNW 4.6 mph - N/A   Unknown
1:00 PM 43.3 °F 40.7 °F 31.8 °F 64% 29.89 in - North 4.6 mph - N/A   Unknown
2:00 PM 42.8 °F 41.1 °F 30.4 °F 62% 29.90 in - North 3.5 mph - N/A   Unknown
3:00 PM 39.6 °F - 31.8 °F 74% 29.91 in - NNE 1.2 mph - N/A   Unknown
4:00 PM 38 °F - 32 °F 71% 29.92 in - Calm Calm - -  
4:00 PM 37.8 °F - 31.8 °F 79% 29.92 in - Calm Calm - N/A   Unknown
5:00 PM 34.0 °F - 31.1 °F 89% 29.92 in - NW 2.3 mph - N/A   Unknown
6:00 PM 32.9 °F - 30.9 °F 92% 29.92 in - Calm Calm - N/A   Unknown
7:00 PM 33.8 °F - 31.6 °F 92% 29.92 in - Calm Calm - N/A   Unknown
8:00 PM 34.3 °F - 32.9 °F 94% 29.92 in - Calm Calm - N/A   Unknown
9:00 PM 39.2 °F - 35.2 °F 86% 29.92 in - ESE 1.2 mph - N/A   Unknown
10:00 PM 40 °F - 35 °F 75% 29.91 in - SSE 1.2 mph - -  
10:00 PM 39.7 °F - 34.7 °F 82% 29.91 in - SSE 1.2 mph - N/A   Unknown
11:00 PM 40.5 °F - 36.1 °F 85% 29.88 in - ESE 2.3 mph - N/A   Unknown